TimeEST,TemperatureF,Dew PointF,Humidity,Sea Level PressureIn,VisibilityMPH,Wind Direction,Wind SpeedMPH,Gust SpeedMPH,PrecipitationIn,Events,Conditions,WindDirDegrees,DateUTC
12:15 AM,55.8,51.1,84,30.26,10.0,SW,11.5,-,N/A,,Overcast,220,2012-12-03 05:15:00
12:35 AM,55.4,51.1,85,30.25,10.0,SW,11.5,-,N/A,,Scattered Clouds,220,2012-12-03 05:35:00
12:55 AM,55.4,51.4,87,30.25,10.0,SW,9.2,-,N/A,,Mostly Cloudy,220,2012-12-03 05:55:00
1:15 AM,55.0,51.8,89,30.25,10.0,SW,6.9,-,N/A,,Mostly Cloudy,220,2012-12-03 06:15:00
1:35 AM,55.4,52.2,89,30.25,10.0,SW,6.9,-,N/A,,Overcast,230,2012-12-03 06:35:00
1:55 AM,55.9,52.7,89,30.25,10.0,SW,9.2,-,N/A,,Overcast,220,2012-12-03 06:55:00
2:15 AM,56.3,52.9,88,30.25,10.0,SW,9.2,-,N/A,,Overcast,230,2012-12-03 07:15:00
2:35 AM,56.3,52.7,88,30.25,10.0,SW,9.2,-,N/A,,Overcast,220,2012-12-03 07:35:00
2:55 AM,56.3,52.9,88,30.25,10.0,SW,6.9,-,N/A,,Overcast,220,2012-12-03 07:55:00
3:15 AM,56.3,52.9,88,30.26,10.0,SW,6.9,-,N/A,,Overcast,220,2012-12-03 08:15:00
3:35 AM,55.8,52.7,89,30.25,10.0,SW,5.8,-,N/A,,Overcast,220,2012-12-03 08:35:00
3:55 AM,55.6,52.7,90,30.25,10.0,SW,5.8,-,N/A,,Overcast,220,2012-12-03 08:55:00
4:15 AM,55.4,52.7,91,30.24,10.0,SW,5.8,-,N/A,,Overcast,220,2012-12-03 09:15:00
4:35 AM,55.4,52.7,91,30.24,10.0,SSW,6.9,-,N/A,,Overcast,210,2012-12-03 09:35:00
4:55 AM,55.4,52.7,91,30.24,10.0,SSW,8.1,-,N/A,,Overcast,210,2012-12-03 09:55:00
5:15 AM,55.4,52.7,91,30.25,10.0,SW,6.9,-,N/A,,Overcast,220,2012-12-03 10:15:00
5:35 AM,54.5,52.0,91,30.25,10.0,SW,8.1,-,N/A,,Mostly Cloudy,220,2012-12-03 10:35:00
5:55 AM,53.6,51.6,93,30.25,10.0,SW,6.9,-,N/A,,Scattered Clouds,220,2012-12-03 10:55:00
6:15 AM,52.9,51.1,94,30.25,7.0,SSW,6.9,-,N/A,,Mostly Cloudy,210,2012-12-03 11:15:00
6:35 AM,52.7,50.9,94,30.25,7.0,SW,5.8,-,N/A,,Scattered Clouds,220,2012-12-03 11:35:00
6:55 AM,51.8,50.2,94,30.25,7.0,SSW,5.8,-,N/A,,Scattered Clouds,210,2012-12-03 11:55:00
7:15 AM,52.2,50.5,94,30.26,4.0,SSW,5.8,-,N/A,,Mostly Cloudy,210,2012-12-03 12:15:00
7:35 AM,52.5,51.1,95,30.26,4.0,SW,5.8,-,N/A,,Mostly Cloudy,220,2012-12-03 12:35:00
7:55 AM,53.1,51.8,95,30.26,4.0,SW,5.8,-,N/A,,Scattered Clouds,220,2012-12-03 12:55:00
8:15 AM,54.5,53.1,95,30.27,5.0,SW,5.8,-,N/A,,Scattered Clouds,220,2012-12-03 13:15:00
8:35 AM,56.5,53.8,91,30.28,7.0,SSW,5.8,-,N/A,,Scattered Clouds,210,2012-12-03 13:35:00
8:55 AM,57.7,53.8,87,30.28,10.0,SW,8.1,-,N/A,,Mostly Cloudy,220,2012-12-03 13:55:00
9:15 AM,59.4,53.1,80,30.29,7.0,SW,8.1,-,N/A,,Mostly Cloudy,220,2012-12-03 14:15:00
9:35 AM,59.9,52.9,78,30.29,10.0,SW,4.6,-,N/A,,Overcast,220,2012-12-03 14:35:00
10:15 AM,63.3,52.5,68,30.29,10.0,SW,4.6,-,N/A,,Overcast,220,2012-12-03 15:15:00
10:35 AM,64.4,51.1,62,30.29,10.0,WSW,4.6,-,N/A,,Mostly Cloudy,240,2012-12-03 15:35:00
10:55 AM,65.7,51.3,60,30.29,10.0,Calm,Calm,-,N/A,,Overcast,0,2012-12-03 15:55:00
11:15 AM,67.1,51.1,56,30.28,10.0,West,3.5,-,N/A,,Overcast,280,2012-12-03 16:15:00
11:35 AM,68.7,50.7,53,30.27,10.0,WNW,4.6,-,N/A,,Overcast,300,2012-12-03 16:35:00
11:55 AM,69.3,50.5,51,30.26,10.0,WNW,3.5,-,N/A,,Overcast,300,2012-12-03 16:55:00
12:15 PM,69.8,50.2,50,30.25,10.0,NW,3.5,-,N/A,,Overcast,320,2012-12-03 17:15:00
12:35 PM,70.7,49.8,48,30.24,10.0,WSW,4.6,-,N/A,,Overcast,250,2012-12-03 17:35:00
12:55 PM,71.6,50.2,47,30.24,10.0,West,3.5,-,N/A,,Mostly Cloudy,280,2012-12-03 17:55:00
1:15 PM,71.1,50.2,48,30.23,10.0,Calm,Calm,-,N/A,,Scattered Clouds,0,2012-12-03 18:15:00
1:35 PM,70.9,50.0,48,30.23,10.0,Calm,Calm,-,N/A,,Mostly Cloudy,0,2012-12-03 18:35:00
1:55 PM,71.6,50.0,46,30.22,10.0,Calm,Calm,-,N/A,,Mostly Cloudy,0,2012-12-03 18:55:00
2:15 PM,71.8,50.2,46,30.22,10.0,Calm,Calm,-,N/A,,Mostly Cloudy,0,2012-12-03 19:15:00
2:35 PM,72.1,50.2,46,30.22,10.0,Calm,Calm,-,N/A,,Overcast,0,2012-12-03 19:35:00
2:55 PM,72.5,50.0,45,30.22,10.0,Calm,Calm,-,N/A,,Mostly Cloudy,0,2012-12-03 19:55:00
3:15 PM,72.1,50.4,46,30.22,10.0,Calm,Calm,-,N/A,,Scattered Clouds,0,2012-12-03 20:15:00
3:35 PM,71.2,51.3,49,30.22,10.0,Calm,Calm,-,N/A,,Mostly Cloudy,0,2012-12-03 20:35:00
3:55 PM,70.7,50.7,49,30.22,10.0,East,3.5,-,N/A,,Mostly Cloudy,100,2012-12-03 20:55:00
4:15 PM,69.1,52.2,55,30.23,10.0,East,3.5,-,N/A,,Overcast,80,2012-12-03 21:15:00
4:35 PM,68.0,52.0,56,30.23,10.0,ENE,3.5,-,N/A,,Overcast,70,2012-12-03 21:35:00
4:55 PM,68.2,51.4,55,30.24,10.0,ESE,3.5,-,N/A,,Overcast,110,2012-12-03 21:55:00
5:15 PM,67.8,51.4,56,30.24,10.0,ESE,3.5,-,N/A,,Mostly Cloudy,120,2012-12-03 22:15:00
5:35 PM,67.6,50.9,55,30.24,10.0,SE,3.5,-,N/A,,Mostly Cloudy,130,2012-12-03 22:35:00
5:55 PM,64.9,51.1,61,30.24,10.0,Calm,Calm,-,N/A,,Scattered Clouds,0,2012-12-03 22:55:00
6:15 PM,63.9,51.4,64,30.25,10.0,Calm,Calm,-,N/A,,Scattered Clouds,0,2012-12-03 23:15:00
6:35 PM,61.9,51.3,68,30.25,10.0,SE,3.5,-,N/A,,Scattered Clouds,140,2012-12-03 23:35:00
6:55 PM,61.9,51.6,69,30.25,10.0,SSE,3.5,-,N/A,,Clear,160,2012-12-03 23:55:00
7:15 PM,60.4,51.3,72,30.25,10.0,South,4.6,-,N/A,,Clear,170,2012-12-04 00:15:00
7:35 PM,60.6,50.9,70,30.25,10.0,SSW,4.6,-,N/A,,Clear,200,2012-12-04 00:35:00
7:55 PM,61.2,50.9,69,30.25,10.0,SW,5.8,-,N/A,,Clear,220,2012-12-04 00:55:00
8:15 PM,60.1,50.9,72,30.25,10.0,SW,5.8,-,N/A,,Clear,220,2012-12-04 01:15:00
8:35 PM,59.7,50.2,71,30.26,10.0,SSW,6.9,-,N/A,,Clear,200,2012-12-04 01:35:00
8:55 PM,59.5,50.4,72,30.26,10.0,SSW,6.9,-,N/A,,Clear,210,2012-12-04 01:55:00
9:15 PM,59.0,50.0,72,30.27,10.0,SSW,3.5,-,N/A,,Clear,200,2012-12-04 02:15:00
9:35 PM,60.1,50.4,70,30.27,10.0,SSW,3.5,-,N/A,,Clear,210,2012-12-04 02:35:00
9:55 PM,59.2,50.2,72,30.27,10.0,SSW,4.6,-,N/A,,Clear,210,2012-12-04 02:55:00
10:15 PM,57.4,50.2,77,30.27,10.0,SSW,3.5,-,N/A,,Clear,210,2012-12-04 03:15:00
10:35 PM,56.8,49.6,77,30.27,10.0,SW,4.6,-,N/A,,Clear,220,2012-12-04 03:35:00
10:55 PM,54.7,49.5,83,30.27,10.0,SSW,4.6,-,N/A,,Clear,210,2012-12-04 03:55:00
11:15 PM,55.2,48.7,79,30.26,10.0,SW,6.9,-,N/A,,Clear,220,2012-12-04 04:15:00
11:35 PM,53.6,48.7,84,30.27,10.0,SSW,3.5,-,N/A,,Clear,200,2012-12-04 04:35:00
11:55 PM,54.5,49.1,82,30.27,10.0,SSW,3.5,-,N/A,,Clear,200,2012-12-04 04:55:00